Regional Weather Roundup
Issued by NWS

Home | Current Version | Previous Version | Graphics & Text | Print | Product List | Glossary Off
Versions: 1 2 3 4 5 6 7 8 9 10 11 12 13 14 15 16 17 18 19 20 21 22 23 24 25 26 27 28 29 30 31 32 33 34 35 36 37 38 39 40 41 42 43 44 45 46 47 48 49 50

000
ASUS43 KMKX 061111
RWRWI

WISCONSIN REGIONAL WEATHER ROUNDUP
NATIONAL WEATHER SERVICE MILWAUKEE/SULLIVAN WI
600 AM CDT MON JUL 06 2015

NOTE: "FAIR" INDICATES FEW OR NO CLOUDS BELOW 12,000 FEET WITH NO
SIGNIFICANT WEATHER AND/OR OBSTRUCTIONS TO VISIBILITY.

WIZ001-002-006>008-014>016-023>028-061200-
NORTHWEST WISCONSIN

CITY           SKY/WX    TMP DP  RH WIND       PRES   REMARKS
SUPERIOR ARPT  RAIN      66  66  99 CALM      29.83R
ASHLAND        CLOUDY    65  65 100 E3        29.84R
HAYWARD        RAIN      67  65  93 S8        29.83F
SIREN          RAIN      67  65  96 S6        29.81S
CUMBERLAND     RAIN      64  64 100 S8        29.85R
RICE LAKE      HVY RAIN  67  66  95 E5        29.85S
CHETEK         HVY RAIN  67  67  98 E12G17    29.85R
LADYSMITH      RAIN      68  66  95 E7        29.87F
EAU CLAIRE     TSTM      68  67  96 E16       29.82R FOG
MENOMONIE      TSTM      70  69  98 NE9       29.82S
NEW RICHMOND   HVY RAIN  66  66  99 E7        29.84S
OSCEOLA        RAIN      67  67 100 SE14      29.84F
$$

WIZ003>005-009-010-017-018-061200-
NORTH CENTRAL WISCONSIN

CITY           SKY/WX    TMP DP  RH WIND       PRES   REMARKS
MANITOWISH WTR HVY RAIN  66  66 100 SW8       29.89R
ARBOR VITAE    CLOUDY    67  64  91 S7        29.90R FOG
WOODRUFF       CLOUDY    67  64  91 S7        29.90R FOG
RHINELANDER    CLOUDY    69  64  84 SW5       29.92S
EAGLE RIVER    CLOUDY    68  63  83 S9        29.89S HAZE
LAND O LAKES   CLOUDY    69  64  85 SW6       29.89S
PHILLIPS       RAIN      66  66  99 S3        29.88F
TOMAHAWK       CLOUDY    66  63  89 CALM      29.90F FOG
MEDFORD        CLOUDY    66  64  95 E3        29.88F FOG
MERRILL        CLOUDY    67  65  93 S3        29.90F FOG
$$

WIZ029-030-035-036-043>047-061200-
CENTRAL WISCONSIN

CITY           SKY/WX    TMP DP  RH WIND       PRES   REMARKS
WAUSAU         CLOUDY    67  63  87 SE6       29.88F FOG
MOSINEE        PTCLDY    64  64 100 SE6       29.91F FOG
MARSHFIELD     CLOUDY    68  63  84 SE6       29.87F HAZE
STEVENS POINT  CLOUDY    66  63  89 SE5       29.89F FOG
WAUPACA        CLOUDY    67  66  96 SE5       29.92F FOG
WAUTOMA        CLOUDY    66  66 100 CALM      29.91F FOG
WISC RAPIDS    CLOUDY    68  63  84 SE5       29.89F
CAMP DOUGLAS   CLOUDY    71  71 100 S12       29.87S
$$

WIZ011>013-019>022-031-037>040-048>050-061200-
NORTHEAST WISCONSIN

CITY           SKY/WX    TMP DP  RH WIND       PRES   REMARKS
ANTIGO         CLOUDY    63  63  99 SW3       29.93F FOG
SHAWANO        CLOUDY    67  64  87 CALM      29.92F HAZE
OCONTO         CLOUDY    65  65 100 CALM      29.92S
STURGEON BAY   CLOUDY    64  57  77 S8        29.97R
GREEN BAY      MOCLDY    65  62  90 MISG      29.94R FOG
MANITOWOC      PTCLDY    62  60  93 MISG      29.96R FOG
APPLETON       MOCLDY    66  63  88 SW9       29.94S
CLINTONVILLE   CLOUDY    63  61  94 CALM      29.91F FOG
OSHKOSH        MOCLDY    67  62  84 SW9       29.94R HAZE
$$

WIZ032>034-041-042-053>061-061200-
SOUTHWEST WISCONSIN

CITY           SKY/WX    TMP DP  RH WIND       PRES   REMARKS
LA CROSSE      CLOUDY    74  67  78 S17       29.83S
SPARTA         CLOUDY    71  64  77 S3        29.86F
VIROQUA        CLOUDY    69  67  93 S12G17    29.88F
BOSCOBEL       CLOUDY    72  66  81 VRB5      29.88F HAZE
PRAIRIE DU CHI CLOUDY    73  66  78 SE7       29.86S
PLATTEVILLE    CLOUDY    70  67  92 S9        29.92F
$$

WIZ056-057-062-063-064-067-068-061200-
SOUTH CENTRAL WISCONSIN

CITY           SKY/WX    TMP DP  RH WIND       PRES   REMARKS
REEDSBURG      CLOUDY    69  65  88 S8        29.89F
BARABOO/DELLS  CLOUDY    68  63  83 S10       29.90F HAZE
LONE ROCK      CLOUDY    72  65  78 CALM      29.90F HAZE
MINERAL POINT  CLOUDY    68  64  88 S8        29.92F FOG
MADISON        CLOUDY    70  63  78 S10       29.92F HAZE
MIDDLETON      MOCLDY    68  65  90 S5        29.93F
WATERTOWN      PTCLDY    64  64 100 S3        29.95S FOG
MONROE         MOCLDY    64  63  94 S9        29.94F FOG
JANESVILLE     CLOUDY    70  64  83 S10       29.95R FOG
$$

WIZ051-052-058>065-066-070>072-061200-
SOUTHEAST WISCONSIN

CITY           SKY/WX    TMP DP  RH WIND       PRES   REMARKS
MILWAUKEE      PTCLDY    66  61  84 S6        29.98R
WAUKESHA       CLEAR     63  61  94 CALM      29.99R FOG
MILWAUKEE/TIMM PTCLDY    64  59  82 S5        29.98R HAZE
RACINE         CLEAR     65  60  84 S6        30.00R HAZE
BURLINGTON     PTCLDY    57  57  99 CALM      29.98R FOG
KENOSHA        CLEAR     65  61  87 S7        29.99R FOG
FOND DU LAC    PTCLDY    70  64  81 SW10      29.94R
SHEBOYGAN      PTCLDY    60  58  92 CALM      29.96R FOG
WEST BEND      PTCLDY    61  57  88 CALM      29.96R FOG
JUNEAU         PTCLDY    65  62  91 S6        29.96F FOG
$$

LSZ147-162-061200-
LAKE SUPERIOR

STATION/POSITION TIME  TEMP    WIND        PRES    WAVE
                       AIR SEA DIR/SP/G            HT/PER
                 (UTC) (F)     (DEG/KT/KT) (MB)    (FT/S)
W MID LAKE BUOY  1050   48 39  200/  8/ 10 1009.8R   1
DEVILS ISLAND    1100   63     230/  9/ 11 1010.4R
PORT WING        1000   67     270/  3/  6 1010.2R
SAXON HARBOR     1000   67      CALM  /  2 1009.8R
$$

LMZ867-665-643>646-061200-
LAKE MICHIGAN

STATION/POSITION TIME  TEMP    WIND        PRES    WAVE
                       AIR SEA DIR/SP/G            HT/PER
                 (UTC) (F)     (DEG/KT/KT) (MB)    (FT/S)
CHAMBERS ISLAND  1000   69     170/  6/ 13 1013.2R
N MID LAKE BUOY  1050   58 55  210/ 14/ 16 1014.0R   2/ 4
NORTHPORT PIER   1000   64     150/  4/  7 1013.5R
SISTER BAY       1029   66     170/ 11/ 13   N/A
ALGOMA LAKESHORE 1041          230/  9/ 11   N/A
KEWAUNEE LAKESHO 1000   60     190/  9/ 12 1012.8F
SHEBOYGAN LAKESH 1100   63     170/  6/  6 1014.8R
PORT WASHINGTON  1000   62     190/  4/  7 1014.6
ATWATER BUOY     1100   63 59  160/  6/  8 1016.4R
MILWAUKEE LAKESH 1000   64     170/  6/  6   N/A
KENOSHA   LAKESH 1100   66     200/  5/  9 1015.2R
$$

TC  - TEMPERATURE IN CELSIUS
VSB - VISIBILITY IN STATUTE MILES
WCI - WIND CHILL INDEX
HX  - HEAT INDEX




USA.gov is the U.S. government's official web portal to all federal, state and local government web resources and services.